Content
SEND FEEDBACK

Daily
Averages
Monthly
Summary
United States of America

GEORGE AIR FORCE BASE, CALIFORNIA


Home > North America > United States > California
Elevation: 2851 feet     Latitude: 34 34N     Longitude: 117 22W

WEATHER
 
SELECT A DAY
Number of Records: 105,160;   Date Range: 12/30/04 - 7/7/14
 
SHARE

PRINT THIS DATA

[ ← Previous Day ]
WEATHER ALMANAC - JANUARY 31, 2013
[ Next Day → ]
[ °C ]   °F
Weather ElementAverageHighLow
Temperature47.2 °F64.4 °F (12:55 pm) (11:55 am)
Dewpoint28.9 °F32 °F (8:15 am) (7:00 pm)
Humidity53.3 %81 % (2:15 am)26 % (12:55 pm)
Barometer30.25 in30.31 in (9:15 am)30.20 in (4:15 pm)
Wind Speed4 mph10.4 mph (1:35 pm)
Wind Gust18.4 mph (1:15 pm)
Weather ElementAverage
Visibility10 mi
Wind DirectionSSE (141.9 °)

Weather ElementTotal
Precipitation---
Heating Degree Days32.8 (Base 65)
Averaged from 69 records on January 31, 2013
WEATHER CONDITIONS BREAKOUT
WIND DIRECTION BREAKOUT
WEATHER BY HOUR - JANUARY 31, 2013
[ °C ]   °F
Local TimeTemperatureDewpointHumidityBarometerVisibilityWind DirectionWind SpeedGust SpeedPrecipitationEventsConditions
12:35 AM41.0 °F30.2 °F65 %30.29 in10.0 miSE (130°)6.9 mphClear
12:55 AM41.0 °F30.2 °F65 %30.28 in10.0 miSE (140°)8.1 mphClear
1:15 AM39.2 °F30.2 °F70 %30.29 in10.0 miSE (140°)8.1 mphClear
1:35 AM39.2 °F30.2 °F70 %30.29 in10.0 miESE (120°)4.6 mphClear
1:55 AM39.2 °F30.2 °F70 %30.29 in10.0 miCalmClear
2:15 AM35.6 °F30.2 °F81 %30.29 in10.0 miCalmClear
2:35 AM35.6 °F28.4 °F75 %30.29 in10.0 miSSW (200°)3.5 mphClear
2:55 AM33.8 °F28.4 °F81 %30.29 in10.0 miSouth (170°)4.6 mphClear
3:15 AM33.8 °F28.4 °F81 %30.28 in10.0 miSouth (180°)5.8 mphClear
3:35 AM35.6 °F28.4 °F75 %30.28 in10.0 miSouth (190°)4.6 mphClear
3:55 AM33.8 °F28.4 °F81 %30.27 in10.0 miSSW (200°)3.5 mphClear
4:15 AM33.8 °F28.4 °F81 %30.27 in10.0 miSouth (180°)3.5 mphClear
4:35 AM33.8 °F28.4 °F81 %30.27 in10.0 miCalmClear
4:55 AM33.8 °F28.4 °F81 %30.27 in10.0 miSE (140°)3.5 mphClear
5:15 AM33.8 °F28.4 °F81 %30.27 in10.0 miSSE (160°)4.6 mphClear
5:35 AM33.8 °F28.4 °F81 %30.27 in10.0 miSE (140°)4.6 mphClear
5:55 AM33.8 °F28.4 °F81 %30.28 in10.0 miSE (140°)6.9 mphClear
6:15 AM35.6 °F28.4 °F75 %30.27 in10.0 miESE (120°)5.8 mphClear
6:35 AM33.8 °F28.4 °F81 %30.28 in10.0 miESE (110°)3.5 mphClear
6:55 AM33.8 °F28.4 °F81 %30.28 in10.0 miSE (140°)4.6 mphClear
7:15 AM35.6 °F28.4 °F75 %30.28 in10.0 miCalmClear
7:35 AM37.4 °F30.2 °F75 %30.29 in10.0 miSE (130°)4.6 mphClear
7:55 AM39.2 °F30.2 °F70 %30.29 in10.0 miSSE (150°)3.5 mphClear
8:15 AM42.8 °F32.0 °F66 %30.30 in10.0 miCalmClear
8:35 AM44.6 °F32.0 °F61 %30.30 in10.0 miSSE (150°)3.5 mphClear
8:55 AM46.4 °F32.0 °F57 %30.30 in10.0 miCalmClear
9:15 AM48.2 °F30.2 °F50 %30.31 in10.0 miCalmClear
9:35 AM51.8 °F30.2 °F44 %30.31 in10.0 miCalm
9:55 AM51.8 °F30.2 °F44 %30.31 in10.0 miCalm
10:15 AM53.6 °F30.2 °F41 %30.31 in10.0 miCalm
10:35 AM55.4 °F30.2 °F38 %30.31 in10.0 miCalmClear
10:55 AM57.2 °F30.2 °F36 %30.31 in10.0 miCalmClear
11:35 AM60.8 °F30.2 °F31 %30.30 inCalmClear
11:55 AM0.0 °F0.0 °F30.30 inNorth
12:15 PM62.6 °F28.4 °F27 %30.28 in10.0 miNorth (350°)3.5 mphClear
12:35 PM62.6 °F28.4 °F27 %30.28 in10.0 miNNW (340°)8.1 mphClear
12:55 PM64.4 °F28.4 °F26 %30.27 in10.0 miNorth (350°)9.2 mphClear
1:15 PM64.4 °F28.4 °F26 %30.25 in10.0 miNNW (340°)9.2 mph18.4 mphClear
1:35 PM64.4 °F28.4 °F26 %30.24 in10.0 miNorth (350°)10.4 mphClear
1:55 PM64.4 °F28.4 °F26 %30.24 in10.0 miNNW (340°)8.1 mphClear
2:15 PM64.4 °F28.4 °F26 %30.23 in10.0 miNorth (350°)8.1 mphClear
2:35 PM64.4 °F28.4 °F26 %30.22 in10.0 miNorth (350°)9.2 mphClear
2:55 PM64.4 °F28.4 °F26 %30.22 in10.0 miNorth (10°)8.1 mphClear
3:15 PM64.4 °F28.4 °F26 %30.21 in10.0 miNNW (330°)5.8 mphClear
3:35 PM64.4 °F28.4 °F26 %30.21 in10.0 miNorth (350°)8.1 mphClear
3:55 PM62.6 °F28.4 °F27 %30.21 in10.0 miNorth (360°)4.6 mphClear
4:15 PM62.6 °F28.4 °F27 %30.20 in10.0 miNorth (350°)5.8 mphClear
4:35 PM62.6 °F28.4 °F27 %30.20 in10.0 miNNW (330°)6.9 mphClear
4:55 PM60.8 °F28.4 °F29 %30.20 in10.0 miNW (320°)4.6 mphClear
5:15 PM60.8 °F28.4 °F29 %30.20 in10.0 miCalmClear
5:35 PM59.0 °F28.4 °F31 %30.20 in10.0 miCalmClear
5:55 PM55.4 °F28.4 °F36 %30.20 in10.0 miCalmClear
6:15 PM53.6 °F28.4 °F38 %30.20 in10.0 miCalmClear
6:35 PM53.6 °F28.4 °F38 %30.20 in10.0 miCalmClear
6:55 PM51.8 °F30.2 °F44 %30.21 in10.0 miCalmClear
7:15 PM51.8 °F30.2 °F44 %30.21 in10.0 miCalmClear
7:35 PM48.2 °F30.2 °F50 %30.21 in10.0 miCalmClear
7:55 PM48.2 °F30.2 °F50 %30.21 in10.0 miSouth (170°)4.6 mphClear
8:15 PM46.4 °F30.2 °F53 %30.22 in10.0 miSouth (180°)4.6 mphClear
8:35 PM46.4 °F30.2 °F53 %30.22 in10.0 miSouth (170°)4.6 mphClear
8:55 PM44.6 °F30.2 °F57 %30.22 in10.0 miSE (140°)4.6 mphClear
9:15 PM44.6 °F30.2 °F57 %30.22 in10.0 miSE (140°)4.6 mphClear
9:35 PM44.6 °F30.2 °F57 %30.22 in10.0 miSE (130°)4.6 mphClear
9:55 PM42.8 °F30.2 °F61 %30.22 in10.0 miSSW (200°)4.6 mphClear
10:15 PM46.4 °F30.2 °F53 %30.23 in10.0 miSouth (190°)3.5 mphClear
10:35 PM42.8 °F30.2 °F61 %30.23 in10.0 miSouth (170°)4.6 mphClear
10:55 PM42.8 °F30.2 °F61 %30.23 in10.0 miSSE (160°)5.8 mphClear
11:15 PM42.8 °F30.2 °F61 %30.22 in10.0 miSSE (150°)8.1 mphClear
11:35 PM41.0 °F30.2 °F65 %30.22 in10.0 miSE (140°)6.9 mphClear
Hourly data recorded from KVCV, located miles away from George Air Force Base, California







STORIES FROM OUR PARTNERS